TimeCDT,TemperatureF,Dew PointF,Humidity,Sea Level PressureIn,VisibilityMPH,Wind Direction,Wind SpeedMPH,Gust SpeedMPH,PrecipitationIn,Events,Conditions,WindDirDegrees,DateUTC
12:15 AM,54.7,54.5,99,29.81,7.0,Calm,Calm,-,N/A,,Overcast,0,2013-06-29 05:15:00
12:35 AM,54.9,54.7,99,29.81,10.0,Calm,Calm,-,N/A,,Overcast,0,2013-06-29 05:35:00
12:55 AM,55.2,55.0,99,29.81,10.0,Calm,Calm,-,N/A,,Overcast,0,2013-06-29 05:55:00
1:15 AM,55.4,55.2,99,29.80,10.0,Calm,Calm,-,N/A,,Overcast,0,2013-06-29 06:15:00
1:35 AM,55.6,55.4,99,29.80,2.5,Calm,Calm,-,N/A,,Overcast,0,2013-06-29 06:35:00
1:55 AM,55.6,55.4,99,29.81,1.0,Calm,Calm,-,N/A,,Overcast,0,2013-06-29 06:55:00
2:15 AM,55.6,55.6,100,29.81,1.5,Calm,Calm,-,N/A,Rain,Light Rain,0,2013-06-29 07:15:00
2:35 AM,55.6,55.6,100,29.81,4.0,Calm,Calm,-,0.01,,Overcast,0,2013-06-29 07:35:00
2:55 AM,55.8,55.8,100,29.81,5.0,Calm,Calm,-,0.01,,Overcast,0,2013-06-29 07:55:00
3:15 AM,55.8,55.8,100,29.81,5.0,Calm,Calm,-,N/A,,Overcast,0,2013-06-29 08:15:00
3:35 AM,55.9,55.8,99,29.81,7.0,Calm,Calm,-,N/A,,Overcast,0,2013-06-29 08:35:00
3:55 AM,56.1,55.9,99,29.81,7.0,Calm,Calm,-,N/A,,Overcast,0,2013-06-29 08:55:00
4:15 AM,56.3,55.9,99,29.81,7.0,Calm,Calm,-,N/A,,Overcast,0,2013-06-29 09:15:00
4:35 AM,56.1,55.9,99,29.81,5.0,Calm,Calm,-,N/A,,Overcast,0,2013-06-29 09:35:00
4:55 AM,55.8,55.6,99,29.82,5.0,Calm,Calm,-,N/A,,Mostly Cloudy,0,2013-06-29 09:55:00
5:15 AM,55.4,55.4,100,29.82,4.0,Calm,Calm,-,N/A,,Scattered Clouds,0,2013-06-29 10:15:00
5:35 AM,55.0,55.0,100,29.83,0.8,Calm,Calm,-,N/A,,Mostly Cloudy,0,2013-06-29 10:35:00
5:55 AM,54.1,54.1,100,29.83,0.2,Calm,Calm,-,N/A,Fog,Fog,0,2013-06-29 10:55:00
6:15 AM,54.9,54.9,100,29.84,0.8,Calm,Calm,-,N/A,,Mostly Cloudy,0,2013-06-29 11:15:00
6:35 AM,56.7,56.7,100,29.84,4.0,Calm,Calm,-,N/A,,Scattered Clouds,0,2013-06-29 11:35:00
6:55 AM,57.2,57.2,100,29.85,5.0,Calm,Calm,-,N/A,,Scattered Clouds,0,2013-06-29 11:55:00
7:15 AM,58.5,58.3,99,29.85,5.0,Calm,Calm,-,N/A,,Mostly Cloudy,0,2013-06-29 12:15:00
7:35 AM,59.4,59.0,99,29.86,5.0,Calm,Calm,-,N/A,,Scattered Clouds,0,2013-06-29 12:35:00
7:55 AM,60.6,59.2,95,29.86,10.0,Calm,Calm,-,N/A,,Clear,0,2013-06-29 12:55:00
8:15 AM,62.1,59.5,91,29.86,10.0,Calm,Calm,-,N/A,,Clear,0,2013-06-29 13:15:00
8:35 AM,63.3,59.9,89,29.87,10.0,Calm,Calm,-,N/A,,Clear,0,2013-06-29 13:35:00
8:55 AM,64.4,60.8,88,29.88,10.0,Calm,Calm,-,N/A,,Scattered Clouds,0,2013-06-29 13:55:00
9:15 AM,65.3,59.7,82,29.88,10.0,NE,6.9,-,N/A,,Scattered Clouds,50,2013-06-29 14:15:00
9:35 AM,65.5,59.2,80,29.89,10.0,ENE,5.8,-,N/A,,Clear,70,2013-06-29 14:35:00
9:55 AM,66.0,58.5,77,29.89,10.0,NE,9.2,-,N/A,,Scattered Clouds,40,2013-06-29 14:55:00
10:15 AM,66.6,58.6,76,29.90,10.0,NE,10.4,18.4,N/A,,Scattered Clouds,50,2013-06-29 15:15:00
10:35 AM,66.0,57.6,74,29.91,10.0,ENE,9.2,16.1,N/A,,Clear,60,2013-06-29 15:35:00
10:55 AM,66.0,57.2,73,29.91,10.0,ENE,11.5,-,N/A,,Clear,70,2013-06-29 15:55:00
11:15 AM,66.2,56.7,71,29.91,10.0,ENE,10.4,18.4,N/A,,Clear,60,2013-06-29 16:15:00
11:35 AM,66.4,55.4,68,29.92,10.0,East,11.5,17.3,N/A,,Clear,90,2013-06-29 16:35:00
11:55 AM,66.9,54.7,65,29.92,10.0,East,13.8,-,N/A,,Clear,100,2013-06-29 16:55:00
12:15 PM,68.0,55.0,63,29.93,10.0,East,12.7,16.1,N/A,,Scattered Clouds,90,2013-06-29 17:15:00
12:35 PM,66.9,54.3,64,29.93,10.0,East,9.2,16.1,N/A,,Scattered Clouds,80,2013-06-29 17:35:00
12:55 PM,66.7,54.1,64,29.94,10.0,ENE,9.2,-,N/A,,Clear,60,2013-06-29 17:55:00
1:15 PM,67.1,53.6,62,29.94,10.0,ENE,11.5,19.6,N/A,,Scattered Clouds,60,2013-06-29 18:15:00
1:35 PM,66.7,53.4,62,29.94,10.0,ENE,11.5,16.1,N/A,,Scattered Clouds,60,2013-06-29 18:35:00
1:55 PM,66.4,52.2,60,29.95,10.0,ENE,11.5,-,N/A,,Clear,60,2013-06-29 18:55:00
2:15 PM,66.9,52.2,59,29.95,10.0,NE,9.2,-,N/A,,Scattered Clouds,50,2013-06-29 19:15:00
2:35 PM,66.7,50.5,56,29.95,10.0,ENE,8.1,-,N/A,,Clear,60,2013-06-29 19:35:00
2:55 PM,67.3,51.6,57,29.95,10.0,NE,4.6,-,N/A,,Scattered Clouds,40,2013-06-29 19:55:00
3:15 PM,69.4,51.4,53,29.95,10.0,ENE,8.1,-,N/A,,Scattered Clouds,70,2013-06-29 20:15:00
3:35 PM,67.8,49.8,52,29.96,10.0,NE,5.8,-,N/A,,Scattered Clouds,50,2013-06-29 20:35:00
3:55 PM,69.1,50.2,51,29.95,10.0,NE,4.6,-,N/A,,Clear,40,2013-06-29 20:55:00
4:15 PM,69.1,50.4,51,29.96,10.0,NE,4.6,-,N/A,,Clear,50,2013-06-29 21:15:00
4:35 PM,68.5,50.9,53,29.96,10.0,NNE,4.6,-,N/A,,Scattered Clouds,20,2013-06-29 21:35:00
4:55 PM,67.8,50.2,53,29.96,10.0,NE,4.6,-,N/A,,Scattered Clouds,50,2013-06-29 21:55:00
5:15 PM,67.5,50.7,55,29.96,10.0,NNE,4.6,-,N/A,,Clear,30,2013-06-29 22:15:00
5:35 PM,68.0,50.5,54,29.96,10.0,NNE,4.6,-,N/A,,Clear,30,2013-06-29 22:35:00
5:55 PM,67.5,50.2,54,29.96,10.0,NE,4.6,-,N/A,,Clear,40,2013-06-29 22:55:00
6:15 PM,67.3,49.8,53,29.96,10.0,ENE,5.8,-,N/A,,Clear,60,2013-06-29 23:15:00
6:35 PM,67.1,49.6,53,29.97,10.0,NE,5.8,-,N/A,,Clear,50,2013-06-29 23:35:00
6:55 PM,65.3,50.2,58,29.97,10.0,NNE,3.5,-,N/A,,Clear,20,2013-06-29 23:55:00
7:15 PM,64.9,51.3,61,29.98,10.0,Calm,Calm,-,N/A,,Clear,0,2013-06-30 00:15:00
7:35 PM,64.6,50.5,60,29.98,10.0,NNE,3.5,-,N/A,,Clear,30,2013-06-30 00:35:00
7:55 PM,63.9,50.4,61,29.98,10.0,NE,3.5,-,N/A,,Clear,40,2013-06-30 00:55:00
8:15 PM,63.3,50.4,63,29.98,10.0,Calm,Calm,-,N/A,,Clear,0,2013-06-30 01:15:00
8:35 PM,59.9,54.1,81,29.99,10.0,Calm,Calm,-,N/A,,Clear,0,2013-06-30 01:35:00
8:55 PM,57.4,53.1,85,29.99,10.0,Calm,Calm,-,N/A,,Clear,0,2013-06-30 01:55:00
9:15 PM,54.9,52.5,92,29.99,10.0,Calm,Calm,-,N/A,,Clear,0,2013-06-30 02:15:00
9:35 PM,55.2,51.8,88,29.99,10.0,Calm,Calm,-,N/A,,Scattered Clouds,0,2013-06-30 02:35:00
9:55 PM,53.4,51.8,94,29.99,10.0,Calm,Calm,-,N/A,,Scattered Clouds,0,2013-06-30 02:55:00
10:15 PM,54.3,52.5,94,29.99,10.0,Calm,Calm,-,N/A,,Scattered Clouds,0,2013-06-30 03:15:00
10:35 PM,51.6,50.5,96,29.99,10.0,Calm,Calm,-,N/A,,Scattered Clouds,0,2013-06-30 03:35:00
10:55 PM,52.3,50.9,95,29.99,10.0,Calm,Calm,-,N/A,,Clear,0,2013-06-30 03:55:00
11:15 PM,51.3,50.0,95,29.99,10.0,Calm,Calm,-,N/A,,Clear,0,2013-06-30 04:15:00
11:35 PM,51.4,50.2,95,30.00,10.0,Calm,Calm,-,N/A,,Clear,0,2013-06-30 04:35:00
11:55 PM,50.9,50.0,97,30.00,10.0,Calm,Calm,-,N/A,,Clear,0,2013-06-30 04:55:00